Regional Weather Roundup
Issued by NWS

Home | Current Version | Previous Version | Graphics & Text | Print | Product List | Glossary On
Versions: 1 2 3 4 5 6 7 8 9 10 11 12 13 14 15 16 17 18 19 20 21 22 23 24 25 26 27 28
000
ASUS45 KBOI 270810
RWRID

IDAHO REGIONAL WEATHER ROUNDUP
NATIONAL WEATHER SERVICE BOISE ID
200 AM MDT FRI MAY 27 2016

NOTE: "FAIR" INDICATES FEW OR NO CLOUDS BELOW 12000 FEET
WITH NO SIGNIFICANT WEATHER AND/OR OBSTRUCTIONS TO VISIBILITY

IDZ012-014-270900-
SOUTHWEST IDAHO


CITY           SKY/WX    TMP DP  RH WIND       PRES   REMARKS
BOISE          PTCLDY    53  40  61 CALM      29.91R
CALDWELL       PTCLDY    56  42  59 W9        29.92S
MOUNTAIN HOME  CLEAR     53  47  81 NW2       29.91R
$$

IDZ016-017-270900-
SOUTHCENTRAL IDAHO


CITY           SKY/WX    TMP DP  RH WIND       PRES   REMARKS
BURLEY         CLEAR     51  38  60 SW9       29.93S
JEROME         CLEAR     52  40  63 SE3       29.94F
TWIN FALLS     PTCLDY    51  39  63 S14       29.94S
$$

IDZ019>023-270900-
SOUTHEAST IDAHO


CITY           SKY/WX    TMP DP  RH WIND       PRES   REMARKS
IDAHO FALLS    CLEAR     48  39  71 SW7       29.93F
POCATELLO      CLEAR     54  38  54 SW14      29.95S
REXBURG        PTCLDY    48  41  76 CALM      29.93S
$$

IDZ006-010-011-018-031-032-270900-
CENTRAL IDAHO MOUNTAINS


CITY           SKY/WX    TMP DP  RH WIND       PRES   REMARKS
MCCALL         CLEAR     43  38  82 CALM      29.96F
HAILEY         PTCLDY    45  37  76 NW9G16    29.97F
STANLEY          N/A     38  30  73 S5        30.02F WCI  34
SALMON         MOCLDY    52  39  62 CALM      29.92S
CHALLIS        CLOUDY    51  38  60 S3        29.94F
$$

IDZ002-004-006-007-026-270900-
NORTHERN IDAHO


CITY           SKY/WX    TMP DP  RH WIND       PRES   REMARKS
LEWISTON       PTCLDY    53  42  66 S5        29.96R
LOWELL           N/A     53  50  89 CALM      29.97F
COEUR D`ALENE  MOCLDY    54  37  54 SE14      29.90S
MULLAN PASS    CLOUDY    39  37  92 VRB3      29.97S
$$




USA.gov is the U.S. government's official web portal to all federal, state and local government web resources and services.